Location: Irma
(52.9170°N, 111.2330°W)
Time: 03:00:39
(UTC-07:00)

Cosmos 1633 Rocket - Visible Passes

Search period start: 18 January 2017 00:00
Search period end: 28 January 2017 00:00
Orbit: 607 x 624 km, 82.5° (Epoch: 18 January)

Date Brightness Start Highest point End Pass type
(mag) Time Alt. Az. Time Alt. Az. Time Alt. Az.
18 Jan 4.9 05:43:37 10° N 05:47:29 29° ENE 05:51:18 10° SE visible
18 Jan 3.6 07:21:20 10° NNW 07:25:22 37° W 07:29:22 10° SSW visible
19 Jan 4.0 05:59:45 10° N 06:04:00 47° ENE 06:08:11 10° SSE visible
19 Jan 4.2 07:38:05 10° NW 07:41:31 23° W 07:44:57 10° SW visible
19 Jan 5.3 18:37:43 10° SE 18:37:47 10° SE 18:37:47 10° SE visible
19 Jan 5.5 20:14:16 10° SSW 20:14:58 14° SSW 20:14:58 14° SSW visible
20 Jan 6.1 04:39:55 10° NNE 04:41:47 12° ENE 04:43:39 10° E visible
20 Jan 3.1 06:16:01 10° N 06:20:25 78° ENE 06:24:46 10° SSE visible
20 Jan 4.3 18:53:14 10° SSE 18:55:33 25° SE 18:55:33 25° SE visible
20 Jan 5.4 20:31:06 10° SW 20:32:43 20° WSW 20:32:43 20° WSW visible
21 Jan 5.6 04:55:21 10° NNE 04:58:29 19° ENE 05:01:34 10° ESE visible
21 Jan 3.0 06:32:24 10° NNW 06:36:45 64° W 06:41:02 10° S visible
21 Jan 3.0 19:09:09 10° S 19:13:19 56° ESE 19:13:19 56° ESE visible
21 Jan 5.6 20:48:17 10° WSW 20:50:30 19° W 20:50:30 19° W visible
22 Jan 5.0 05:11:16 10° N 05:15:05 28° ENE 05:18:52 10° SE visible
22 Jan 3.5 06:48:56 10° NNW 06:52:59 38° W 06:57:00 10° SSW visible
22 Jan 4.8 17:50:36 10° ESE 17:52:39 13° E 17:53:52 12° ENE visible
22 Jan 3.0 19:25:22 10° S 19:29:46 87° W 19:31:03 46° N visible
22 Jan 6.0 21:06:00 10° W 21:08:14 14° WNW 21:08:14 14° WNW visible
23 Jan 4.1 05:27:54 13° N 05:31:35 45° ENE 05:35:46 10° SSE visible
23 Jan 4.1 07:05:40 10° NW 07:09:09 24° W 07:12:37 10° SW visible
23 Jan 4.3 18:05:25 10° SE 18:08:42 21° E 18:11:33 12° NE visible
23 Jan 3.8 19:41:52 10° SSW 19:46:10 53° WNW 19:48:43 23° N visible
24 Jan 6.1 04:07:43 10° NE 04:09:21 12° ENE 04:11:03 10° E visible
24 Jan 3.1 05:44:51 19° N 05:48:01 75° E 05:52:21 10° SSE visible
24 Jan 4.6 07:22:45 10° NW 07:25:13 15° W 07:27:42 10° WSW visible
24 Jan 3.7 18:20:55 10° SSE 18:24:51 33° E 18:28:48 10° NNE visible
24 Jan 4.7 19:58:40 10° SW 20:02:40 33° WNW 20:06:17 12° N visible
25 Jan 5.6 04:24:49 16° NE 04:26:04 18° ENE 04:29:05 10° ESE visible
25 Jan 2.9 06:01:58 26° NNW 06:04:21 66° W 06:08:39 10° S visible
25 Jan 3.1 18:36:48 10° S 18:41:05 55° E 18:45:22 10° NNE visible
25 Jan 5.5 20:15:49 10° WSW 20:19:14 21° WNW 20:22:38 10° NNW visible
26 Jan 5.0 04:42:06 27° NE 04:42:40 27° ENE 04:46:24 10° SE visible
26 Jan 3.4 06:19:15 31° NW 06:20:36 39° W 06:24:39 10° SSW visible
26 Jan 3.0 18:52:59 10° S 18:57:23 90° SW 19:01:48 10° N visible
26 Jan 6.0 20:33:30 10° W 20:35:54 14° WNW 20:38:17 10° NNW visible
27 Jan 4.2 04:59:32 42° E 04:59:32 42° E 05:03:20 10° SE visible
27 Jan 4.0 06:36:42 25° W 06:36:46 25° W 06:40:17 10° SW visible
27 Jan 4.4 17:33:08 10° SE 17:36:21 20° E 17:39:34 10° NE visible
27 Jan 3.8 19:09:29 10° SSW 19:13:47 55° WNW 19:18:07 10° N visible
